GPS BIIF-6

Last updated on Sun Apr 12 2026 00:02:39 GMT+0000 (Coordinated Universal Time)

1 39741U 14026A 26101.15153726 -.00000061 00000+0 00000+0 0 9993 2 39741 56.5288 334.1286 0039244 326.2989 33.5008 2.00566038 87192
UTC large
Height (km)
Speed (km/s)
/
Latitude / Longitude
Inclination (degrees)
Orbital Period (minutes)
Azimuth
Elevation
Range (km)
Doppler Factor

Next 0 passes for location: London (51.5072 / 0.1276)

Sorry there are no passes over London.